TimePDT,TemperatureF,Dew PointF,Humidity,Sea Level PressureIn,VisibilityMPH,Wind Direction,Wind SpeedMPH,Gust SpeedMPH,PrecipitationIn,Events,Conditions,WindDirDegrees,DateUTC
12:56 AM,44.1,-2.0,15,30.09,10.0,NE,3.5,-,N/A,,Clear,40,2013-05-01 07:56:00
1:56 AM,45.0,-4.0,13,30.11,10.0,North,17.3,-,N/A,,Clear,10,2013-05-01 08:56:00
2:56 AM,39.9,-0.9,18,30.12,10.0,North,12.7,-,N/A,,Clear,360,2013-05-01 09:56:00
3:56 AM,39.0,1.0,20,30.14,10.0,North,16.1,-,N/A,,Clear,360,2013-05-01 10:56:00
4:56 AM,34.0,3.9,28,30.17,10.0,South,4.6,-,N/A,,Clear,170,2013-05-01 11:56:00
5:56 AM,34.0,5.0,30,30.19,10.0,NNE,5.8,-,N/A,,Clear,20,2013-05-01 12:56:00
6:13 AM,33.8,6.8,32,30.32,10.0,North,8.1,-,N/A,,Partly Cloudy,10,2013-05-01 13:13:00
6:56 AM,36.0,7.0,30,30.22,10.0,Calm,Calm,-,N/A,,Clear,0,2013-05-01 13:56:00
7:56 AM,41.0,6.1,24,30.24,10.0,East,3.5,-,N/A,,Partly Cloudy,100,2013-05-01 14:56:00
8:56 AM,46.9,7.0,20,30.25,10.0,NE,9.2,-,N/A,,Clear,40,2013-05-01 15:56:00
9:56 AM,50.0,8.1,18,30.25,5.0,Variable,4.6,-,N/A,,Clear,0,2013-05-01 16:56:00
10:32 AM,51.8,3.2,14,30.38,10.0,Variable,3.5,-,N/A,,Clear,0,2013-05-01 17:32:00
10:56 AM,53.1,5.0,14,30.26,10.0,Variable,3.5,-,N/A,,Clear,0,2013-05-01 17:56:00
11:56 AM,54.0,1.9,12,30.26,10.0,Calm,Calm,-,N/A,,Clear,0,2013-05-01 18:56:00
12:56 PM,57.9,-0.0,10,30.26,10.0,North,6.9,-,N/A,,Clear,360,2013-05-01 19:56:00
1:56 PM,59.0,1.9,10,30.25,10.0,Variable,3.5,-,N/A,,Clear,0,2013-05-01 20:56:00
2:56 PM,63.0,-2.0,7,30.25,10.0,Variable,6.9,-,N/A,,Clear,0,2013-05-01 21:56:00
3:56 PM,64.0,-2.0,7,30.23,10.0,North,12.7,16.1,N/A,,Clear,360,2013-05-01 22:56:00
4:56 PM,64.9,-0.0,7,30.22,10.0,North,9.2,-,N/A,,Clear,360,2013-05-01 23:56:00
5:56 PM,66.0,-0.9,7,30.22,10.0,NNE,8.1,-,N/A,,Clear,20,2013-05-02 00:56:00
6:56 PM,64.0,1.0,8,30.23,10.0,North,10.4,-,N/A,,Clear,10,2013-05-02 01:56:00
7:56 PM,57.9,1.9,10,30.25,10.0,NNE,9.2,-,N/A,,Clear,20,2013-05-02 02:56:00
8:56 PM,53.1,1.0,12,30.27,10.0,NNE,9.2,-,N/A,,Clear,30,2013-05-02 03:56:00
9:56 PM,48.9,-0.0,13,30.29,10.0,NNE,9.2,-,N/A,,Clear,20,2013-05-02 04:56:00
10:56 PM,44.1,3.0,18,30.30,10.0,Calm,Calm,-,N/A,,Clear,0,2013-05-02 05:56:00
11:56 PM,45.0,1.0,16,30.32,10.0,Calm,Calm,-,N/A,,Clear,0,2013-05-02 06:56:00